Location: ??????
(41.3164°N, 22.6615°E)
Time: 22:40:07
(UTC+00:00)

Okean O Rocket - Pass Details

Date: 16 October 2021
Orbit: 623 x 643 km, 98.2° (Epoch: 05 December)

Event Time Altitude Azimuth Distance (km) Brightness Sun altitude
Rises 16:17:20 0° 151° (SSE) 2,891 4.8 -6.5°
Reaches altitude 10° 16:19:33 10° 146° (SE) 1,988 3.9 -6.9°
Maximum altitude 16:23:42 48° 72° (ENE) 822 1.8 -7.7°
Drops below altitude 10° 16:27:54 10° 359° (N) 2,005 4.2 -8.5°
Sets 16:30:09 0° 353° (N) 2,918 5.1 -8.9°
